CZ-6A DEB, 54342

Orbit data source: Space-Track

CZ-6A DEB, 54342 is space debris in SSO originally from a launch on Fri, 11 Nov 2022 UTC launched from the Taiyaun Space Center, China (TSC). Debris objects in space refer to the collection of defunct objects orbiting the Earth. Examples of debris include non-operational satellites, rocket bodies, and fragments generated from explosions, collisions, or faulty payload assembly.

Loading next visibility...
Identifier
54342, 2022-151CM
Orbit
SSO
Country
Flag of CNCN / PRC
Related business
Manufacturer
SAST
Mission
Spacecraft
Bus & Motor
Unknown
Mass
Unknown
Launch date (UTC)
2022-11-11 (3 years ago)
Launch vehicle
Unknown
Launch site
Taiyaun Space Center, China (TSC)
Object type
Payload
Rocket body
Debris
Shape & HBR
Unknown shape, 0.2 m
Radar Cross Section
Small (<0.1 m²)

Expand to show TLE details & history
Last TLE update: 11 hours ago

TLE from 11 hours ago
0 CZ-6A DEB
1 54342U 22151CM  25355.24684411  .00000043  00000-0  49299-4 0  9993
2 54342  98.8322 349.8546 0052387 133.8684 226.6832 14.08858264159234
Epoch: 2025-12-21T05:55Z
TLE epoch observation values (Epoch: 2025-12-21T05:55:27.331Z)
Latitude
0.00004°
Longitude
170.92868°
Altitude
892.312 km
Speed
7.393 km/s
True Right ascension
23h 19m 25s
True Declination
0° 00' 00"
Sunlit
Object was in daylight at epoch
Visualization orbit readout
Latitude
Unknown
Longitude
Unknown
Altitude
Unknown
Speed
Unknown
Apparent Right ascension
Unknown
Apparent Declination
Unknown
Sunlit
N/A
Visualization observer readout
Local Sidereal Time
15:45:54
Azimuth
Unknown
Elevation
Unknown
Doppler factor
Unknown
Orbital elements
Apogee altitude
898.381 km
Perigee altitude
822.54 km
Semi-major axis
7,238.598 km
Eccentricity
0.00524
Inclination
98.8322°
RAAN
349.8546°
Arg. of periapsis
133.8684°
True anomaly
226.24839°
Mean anomaly
226.6832°
Eccentric anomaly
226.4656°
Mean motion
3.52421 °/min
Orbital period
102.15 mins
BSTAR
0.000049299
Loading maneuver chart data...
Computing Atmospheric mass density...
Loading historical data...
Loading historical data...
Loading historical data...
Loading historical data...
Loading historical data...
Loading historical data...
Loading historical data...

Documentation

Showing up to 5 results
|